START_TIME,STEP,MOV.,M29,t_acc.,H22,t_acc.,H26,t_acc.,H30,t_acc.
1981-08-25 06:00:32.890 ,0,0,0.,24.0,0.,24.0,0.,24.0,0.,24.0
1981-08-25 06:01:01.090 ,0,0,0.,24.0,0.,24.0,0.,24.0,0.,24.0
1981-08-25 06:01:20.890 ,0,0,0.,24.0,0.,24.0,0.,24.0,0.,24.0
1981-08-25 06:01:44.890 ,2,1,0.,24.0,0.,24.0,0.,24.0,0.,24.0
1981-08-25 06:02:08.890 ,2,0,0.,24.0,0.,24.0,0.,24.0,0.,24.0
1981-08-25 06:02:32.890 ,3,1,0.,24.0,0.,24.0,0.,24.0,0.,24.0
1981-08-25 06:02:56.890 ,3,0,0.,24.0,0.,24.0,0.,24.0,0.,24.0
1981-08-25 06:03:20.890 ,4,1,0.,24.0,0.,24.0,0.,24.0,0.,24.0
1981-08-25 06:03:44.890 ,4,0,0.,24.0,0.,24.0,0.,24.0,0.,24.0
1981-08-25 06:04:08.890 ,5,1,0.,24.0,0.,24.0,0.,24.0,0.,24.0
1981-08-25 06:04:32.890 ,5,0,0.,24.0,0.,24.0,0.,24.0,0.,24.0
1981-08-25 06:04:56.890 ,6,1,0.,24.0,0.,24.0,0.,24.0,0.,24.0
1981-08-25 06:05:20.890 ,6,0,0.,24.0,0.,24.0,0.,24.0,0.,24.0
1981-08-25 06:05:44.890 ,7,1,0.,24.0,0.,24.0,0.,24.0,0.,24.0
1981-08-25 06:06:08.890 ,7,0,0.,24.0,0.,24.0,0.,24.0,0.,24.0
1981-08-25 06:06:32.890 ,7,1,0.,24.0,0.,24.0,0.,24.0,0.,24.0
1981-08-25 06:06:56.890 ,7,0,0.,24.0,0.,24.0,0.,24.0,0.,24.0
1981-08-25 06:07:20.890 ,6,1,0.,24.0,0.,24.0,0.,24.0,0.,24.0
1981-08-25 06:07:44.890 ,6,0,0.,24.0,0.,24.0,0.,24.0,0.,24.0
1981-08-25 06:08:08.890 ,5,1,0.,24.0,0.,24.0,0.,24.0,0.,24.0
1981-08-25 06:08:32.890 ,5,0,0.,24.0,0.,24.0,0.,24.0,0.,24.0
1981-08-25 06:08:56.890 ,4,1,0.,24.0,0.,24.0,0.,24.0,0.,24.0
1981-08-25 06:09:20.890 ,4,0,0.,24.0,0.,24.0,0.,24.0,0.,24.0
1981-08-25 06:09:44.890 ,3,1,0.,24.0,0.,24.0,0.,24.0,0.,24.0
1981-08-25 06:10:08.890 ,3,0,0.,24.0,0.,24.0,0.,24.0,0.,24.0
1981-08-25 06:10:32.890 ,2,1,0.,24.0,0.,24.0,0.,24.0,0.,24.0
1981-08-25 06:10:56.890 ,2,0,0.,24.0,0.,24.0,0.,24.0,0.,24.0
1981-08-25 06:11:20.890 ,1,1,0.,24.0,0.,24.0,0.,24.0,0.,24.0
1981-08-25 06:11:44.890 ,1,0,0.,24.0,0.,24.0,0.,24.0,0.,24.0
1981-08-25 06:12:08.890 ,0,1,0.,24.0,0.,24.0,0.,24.0,0.,24.0
1981-08-25 06:12:32.890 ,0,0,0.,24.0,0.,24.0,0.,24.0,0.,24.0
1981-08-25 06:12:56.890 ,0,1,0.,24.0,0.,24.0,0.,24.0,0.,24.0
1981-08-25 06:13:20.890 ,0,0,0.,24.0,0.,24.0,0.,24.0,0.,24.0
1981-08-25 06:13:44.890 ,1,1,0.,24.0,0.,24.0,0.,24.0,0.,24.0
1981-08-25 06:14:08.890 ,1,0,0.,24.0,0.,24.0,0.,24.0,0.,24.0
1981-08-25 06:14:32.890 ,2,1,0.,24.0,0.,24.0,0.,24.0,0.,24.0
1981-08-25 06:14:56.890 ,2,0,0.,24.0,0.,24.0,0.,24.0,0.,24.0
1981-08-25 06:15:20.890 ,3,1,0.,24.0,0.,24.0,0.,24.0,0.,24.0
1981-08-25 06:15:44.890 ,3,0,0.,24.0,0.,24.0,0.,24.0,0.,24.0
1981-08-25 06:16:08.890 ,4,1,0.,24.0,0.,24.0,0.,24.0,0.,24.0
1981-08-25 06:16:32.890 ,4,0,0.,24.0,0.,24.0,0.,24.0,0.,24.0
1981-08-25 06:16:56.890 ,5,1,0.,24.0,0.,24.0,0.,24.0,0.,24.0
1981-08-25 06:17:20.890 ,5,0,0.,24.0,0.,24.0,0.,24.0,0.,24.0
1981-08-25 06:17:44.890 ,6,1,0.,24.0,0.,24.0,0.,24.0,0.,24.0
1981-08-25 06:18:08.890 ,6,0,0.,24.0,0.,24.0,0.,24.0,0.,24.0
1981-08-25 06:18:32.890 ,7,1,0.,24.0,0.,24.0,0.,24.0,0.,24.0
1981-08-25 06:18:56.890 ,7,0,0.,24.0,0.,24.0,0.,24.0,0.,24.0
1981-08-25 06:19:20.890 ,7,1,0.,24.0,0.,24.0,0.,24.0,0.,24.0
1981-08-25 06:19:44.890 ,7,0,0.,24.0,0.,24.0,0.,24.0,0.,24.0
1981-08-25 06:20:08.890 ,6,1,0.,24.0,0.,24.0,0.,24.0,0.,24.0
1981-08-25 06:20:32.890 ,6,0,0.,24.0,0.,24.0,0.,24.0,0.,24.0
1981-08-25 06:20:56.890 ,5,1,0.,24.0,0.,24.0,0.,24.0,0.,24.0
1981-08-25 06:21:20.890 ,5,0,0.,24.0,0.,24.0,0.,24.0,0.,24.0
1981-08-25 06:21:44.890 ,4,1,0.,24.0,0.,24.0,0.,24.0,0.,24.0
1981-08-25 06:22:08.890 ,4,0,0.,24.0,0.,24.0,0.,24.0,0.,24.0
1981-08-25 06:22:32.890 ,3,1,0.,24.0,0.,24.0,0.,24.0,0.,24.0
1981-08-25 06:22:56.890 ,3,0,0.,24.0,0.,24.0,0.,24.0,0.,24.0
1981-08-25 06:23:20.890 ,2,1,0.,24.0,0.,24.0,0.,24.0,0.,24.0
1981-08-25 06:23:44.890 ,2,0,0.,24.0,0.,24.0,0.,24.0,0.,24.0
1981-08-25 06:24:08.890 ,1,1,0.,24.0,0.,24.0,0.,24.0,0.,24.0
1981-08-25 06:24:32.890 ,1,0,0.,24.0,0.,24.0,0.,24.0,0.,24.0
1981-08-25 06:24:56.890 ,0,1,0.,24.0,0.,24.0,0.,24.0,0.,24.0
1981-08-25 06:25:20.890 ,0,0,0.,24.0,0.,24.0,0.,24.0,0.,24.0
1981-08-25 06:25:44.890 ,0,1,0.,24.0,0.,24.0,0.,24.0,0.,24.0
1981-08-25 06:26:08.890 ,0,0,0.,24.0,0.,24.0,0.,24.0,0.,24.0
1981-08-25 06:26:32.890 ,1,1,0.,24.0,0.,24.0,0.,24.0,0.,24.0
1981-08-25 06:26:56.890 ,1,0,0.,24.0,0.,24.0,0.,24.0,0.,24.0
1981-08-25 06:27:20.890 ,2,1,0.,24.0,0.,24.0,0.,24.0,0.,24.0
1981-08-25 06:27:44.890 ,2,0,0.,24.0,0.,24.0,0.,24.0,0.,24.0
1981-08-25 06:28:08.890 ,3,1,0.,24.0,0.,24.0,0.,24.0,0.,24.0
1981-08-25 06:28:32.890 ,3,0,0.,24.0,0.,24.0,0.,24.0,0.,24.0
1981-08-25 06:28:56.890 ,4,1,0.,24.0,0.,24.0,0.,24.0,0.,24.0
1981-08-25 06:29:20.890 ,4,0,0.,24.0,0.,24.0,0.,24.0,0.,24.0
1981-08-25 06:29:44.890 ,5,1,0.,24.0,0.,24.0,0.,24.0,0.,24.0
1981-08-25 06:30:08.890 ,5,0,0.,24.0,0.,24.0,0.,24.0,0.,24.0
1981-08-25 06:30:32.890 ,6,1,0.,24.0,0.,24.0,0.,24.0,0.,24.0
1981-08-25 06:30:56.890 ,6,0,0.,24.0,0.,24.0,0.,24.0,0.,24.0
1981-08-25 06:30:32.890 ,6,1,0.,24.0,0.,24.0,0.,24.0,0.,24.0
1981-08-25 06:30:56.890 ,6,0,0.,24.0,0.,24.0,0.,24.0,0.,24.0
1981-08-25 06:31:20.890 ,7,1,0.,24.0,0.,24.0,0.,24.0,0.,24.0
1981-08-25 06:31:44.890 ,7,0,0.,24.0,0.,24.0,0.,24.0,0.,24.0
1981-08-25 06:32:08.890 ,7,1,0.,24.0,0.,24.0,0.,24.0,0.,24.0
1981-08-25 06:32:32.890 ,7,0,0.,24.0,0.,24.0,0.,24.0,0.,24.0
1981-08-25 06:32:56.890 ,6,1,0.,24.0,0.,24.0,0.,24.0,0.,24.0
1981-08-25 06:33:20.890 ,6,0,0.,24.0,0.,24.0,0.,24.0,0.,24.0
1981-08-25 06:33:44.890 ,5,1,0.,24.0,0.,24.0,0.,24.0,0.,24.0
1981-08-25 06:34:08.890 ,5,0,0.,24.0,0.,24.0,0.,24.0,0.,24.0
1981-08-25 06:34:32.890 ,4,1,0.,24.0,0.,24.0,0.,24.0,0.,24.0
1981-08-25 06:34:56.890 ,4,0,0.,24.0,0.,24.0,0.,24.0,0.,24.0
1981-08-25 06:35:20.890 ,3,1,0.,24.0,0.,24.0,0.,24.0,0.,24.0
1981-08-25 06:35:44.890 ,3,0,0.,24.0,0.,24.0,0.,24.0,0.,24.0
1981-08-25 06:36:08.890 ,2,1,0.,24.0,0.,24.0,0.,24.0,0.,24.0
1981-08-25 06:36:32.890 ,2,0,0.,24.0,0.,24.0,0.,24.0,0.,24.0
1981-08-25 06:36:56.890 ,1,1,0.,24.0,0.,24.0,0.,24.0,0.,24.0
1981-08-25 06:37:20.890 ,1,0,0.,24.0,0.,24.0,0.,24.0,0.,24.0
1981-08-25 06:37:44.890 ,0,1,0.,24.0,0.,24.0,0.,24.0,0.,24.0
1981-08-25 06:38:08.890 ,0,0,0.,24.0,0.,24.0,0.,24.0,0.,24.0
1981-08-25 06:38:32.890 ,0,1,0.,24.0,0.,24.0,0.,24.0,0.,24.0
1981-08-25 06:38:56.890 ,0,0,0.,24.0,0.,24.0,0.,24.0,0.,24.0
1981-08-25 06:39:20.890 ,1,1,0.,24.0,0.,24.0,0.,24.0,0.,24.0
1981-08-25 06:39:44.890 ,1,0,0.,24.0,0.,24.0,0.,24.0,0.,24.0
1981-08-25 06:40:08.890 ,2,1,0.,24.0,0.,24.0,0.,24.0,0.,24.0
1981-08-25 06:40:32.890 ,2,0,0.,24.0,0.,24.0,0.,24.0,0.,24.0
1981-08-25 06:40:56.890 ,3,1,0.,24.0,0.,24.0,0.,24.0,0.,24.0
1981-08-25 06:41:20.890 ,3,0,0.,24.0,0.,24.0,0.,24.0,0.,24.0
1981-08-25 06:41:44.890 ,4,1,0.,24.0,0.,24.0,0.,24.0,0.,24.0
1981-08-25 06:42:08.890 ,4,0,0.,24.0,0.,24.0,0.,24.0,0.,24.0
1981-08-25 06:42:32.890 ,5,1,0.,24.0,0.,24.0,0.,24.0,0.,24.0
1981-08-25 06:42:56.890 ,5,0,0.,24.0,0.,24.0,0.,24.0,0.,24.0
1981-08-25 06:43:20.890 ,6,1,0.,24.0,0.,24.0,0.,24.0,0.,24.0
1981-08-25 06:43:44.890 ,6,0,0.,24.0,0.,24.0,0.,24.0,0.,24.0
1981-08-25 06:44:56.890 ,0,0,0.,24.0,0.,24.0,0.,24.0,0.,24.0
1981-08-25 06:45:20.890 ,0,0,0.,24.0,0.,24.0,0.,24.0,0.,24.0
1981-08-25 06:45:44.890 ,6,1,0.,24.0,0.,24.0,0.,24.0,0.,24.0
1981-08-25 06:46:08.890 ,6,0,0.,24.0,0.,24.0,0.,24.0,0.,24.0
1981-08-25 06:46:32.890 ,5,1,0.,24.0,0.,24.0,0.,24.0,0.,24.0
1981-08-25 06:46:56.890 ,5,0,0.,24.0,0.,24.0,0.,24.0,0.,24.0
1981-08-25 06:47:20.890 ,4,1,0.,24.0,0.,24.0,0.,24.0,0.,24.0
1981-08-25 06:47:44.890 ,4,0,0.,24.0,0.,24.0,0.,24.0,0.,24.0
1981-08-25 06:48:08.890 ,3,1,0.,24.0,0.,24.0,0.,24.0,0.,24.0
1981-08-25 06:48:32.890 ,3,0,0.,24.0,0.,24.0,0.,24.0,0.,24.0
1981-08-25 06:48:56.890 ,2,1,0.,24.0,0.,24.0,0.,24.0,0.,24.0
1981-08-25 06:49:20.890 ,2,0,0.,24.0,0.,24.0,0.,24.0,0.,24.0
1981-08-25 06:49:44.890 ,1,1,0.,24.0,0.,24.0,0.,24.0,0.,24.0
1981-08-25 06:50:08.890 ,1,0,0.,24.0,0.,24.0,0.,24.0,0.,24.0
1981-08-25 06:50:32.890 ,0,1,0.,24.0,0.,24.0,0.,24.0,0.,24.0
1981-08-25 06:50:56.890 ,0,0,0.,24.0,0.,24.0,0.,24.0,0.,24.0
1981-08-25 06:51:20.890 ,0,1,0.,24.0,0.,24.0,0.,24.0,0.,24.0
1981-08-25 06:51:44.890 ,0,0,0.,24.0,0.,24.0,0.,24.0,0.,24.0
1981-08-25 06:52:08.890 ,1,1,0.,24.0,0.,24.0,0.,24.0,0.,24.0
1981-08-25 06:52:32.890 ,1,0,0.,24.0,0.,24.0,0.,24.0,0.,24.0
1981-08-25 06:52:56.890 ,2,1,0.,24.0,0.,24.0,0.,24.0,0.,24.0
1981-08-25 06:53:20.890 ,2,0,0.,24.0,0.,24.0,0.,24.0,0.,24.0
1981-08-25 06:53:44.890 ,3,1,0.,24.0,0.,24.0,0.,24.0,0.,24.0
1981-08-25 06:54:08.890 ,3,0,0.,24.0,0.,24.0,0.,24.0,0.,24.0
1981-08-25 06:54:32.890 ,4,1,0.,24.0,0.,24.0,0.,24.0,0.,24.0
1981-08-25 06:54:56.890 ,4,0,0.,24.0,0.,24.0,0.,24.0,0.,24.0
1981-08-25 06:55:20.890 ,5,1,0.,24.0,0.,24.0,0.,24.0,0.,24.0
1981-08-25 06:55:44.890 ,5,0,0.,24.0,0.,24.0,0.,24.0,0.,24.0
1981-08-25 06:56:08.890 ,6,1,0.,24.0,0.,24.0,0.,24.0,0.,24.0
1981-08-25 06:56:32.890 ,6,0,0.,24.0,0.,24.0,0.,24.0,0.,24.0
1981-08-25 06:56:56.890 ,7,1,0.,24.0,0.,24.0,0.,24.0,0.,24.0
1981-08-25 06:57:20.890 ,7,0,0.,24.0,0.,24.0,0.,24.0,0.,24.0
1981-08-25 06:57:44.890 ,7,1,0.,24.0,0.,24.0,0.,24.0,0.,24.0
1981-08-25 06:58:08.890 ,0,0,0.,24.0,0.,24.0,0.,24.0,0.,24.0
1981-08-25 07:01:28.090 ,0,0,0.,24.0,0.,24.0,0.,24.0,0.,24.0
1981-08-25 07:01:44.890 ,2,1,0.,24.0,0.,24.0,0.,24.0,0.,24.0
1981-08-25 07:02:08.890 ,2,0,0.,24.0,0.,24.0,0.,24.0,0.,24.0
1981-08-25 07:02:32.890 ,1,1,0.,24.0,0.,24.0,0.,24.0,0.,24.0
1981-08-25 07:02:56.890 ,1,0,0.,24.0,0.,24.0,0.,24.0,0.,24.0
1981-08-25 07:03:20.890 ,0,1,0.,24.0,0.,24.0,0.,24.0,0.,24.0
1981-08-25 07:03:44.890 ,0,0,0.,24.0,0.,24.0,0.,24.0,0.,24.0
1981-08-25 07:04:08.890 ,0,1,0.,24.0,0.,24.0,0.,24.0,0.,24.0
1981-08-25 07:04:32.880 ,0,0,0.,24.0,0.,24.0,0.,24.0,0.,24.0
1981-08-25 07:04:56.880 ,1,1,0.,24.0,0.,24.0,0.,24.0,0.,24.0
1981-08-25 07:05:20.880 ,1,0,0.,24.0,0.,24.0,0.,24.0,0.,24.0
1981-08-25 07:05:44.880 ,2,1,0.,24.0,0.,24.0,0.,24.0,0.,24.0
1981-08-25 07:06:08.880 ,2,0,0.,24.0,0.,24.0,0.,24.0,0.,24.0
1981-08-25 07:06:32.880 ,3,1,0.,24.0,0.,24.0,0.,24.0,0.,24.0
1981-08-25 07:06:56.880 ,3,0,0.,24.0,0.,24.0,0.,24.0,0.,24.0
1981-08-25 07:07:20.880 ,4,1,0.,24.0,0.,24.0,0.,24.0,0.,24.0
1981-08-25 07:07:44.880 ,4,0,0.,24.0,0.,24.0,0.,24.0,0.,24.0
1981-08-25 07:08:08.880 ,5,1,0.,24.0,0.,24.0,0.,24.0,0.,24.0
1981-08-25 07:08:32.890 ,5,0,0.,24.0,0.,24.0,0.,24.0,0.,24.0
1981-08-25 07:08:56.890 ,6,1,0.,24.0,0.,24.0,0.,24.0,0.,24.0
1981-08-25 07:09:20.890 ,6,0,0.,24.0,0.,24.0,0.,24.0,0.,24.0
1981-08-25 07:09:44.890 ,7,1,0.,24.0,0.,24.0,0.,24.0,0.,24.0
1981-08-25 07:10:08.890 ,7,0,0.,24.0,0.,24.0,0.,24.0,0.,24.0
1981-08-25 07:10:32.890 ,7,1,0.,24.0,0.,24.0,0.,24.0,0.,24.0
1981-08-25 07:10:56.890 ,7,0,0.,24.0,0.,24.0,0.,24.0,0.,24.0
1981-08-25 07:11:20.890 ,6,1,0.,24.0,0.,24.0,0.,24.0,0.,24.0
1981-08-25 07:11:44.890 ,6,0,0.,24.0,0.,24.0,0.,24.0,0.,24.0
1981-08-25 07:12:08.890 ,5,1,0.,24.0,0.,24.0,0.,24.0,0.,24.0
1981-08-25 07:12:32.890 ,5,0,0.,24.0,0.,24.0,0.,24.0,0.,24.0
1981-08-25 07:12:56.890 ,4,1,0.,24.0,0.,24.0,0.,24.0,0.,24.0
1981-08-25 07:13:20.890 ,4,0,0.,24.0,0.,24.0,0.,24.0,0.,24.0
1981-08-25 07:13:44.890 ,3,1,0.,24.0,0.,24.0,0.,24.0,0.,24.0
1981-08-25 07:14:08.890 ,3,0,0.,24.0,0.,24.0,0.,24.0,0.,24.0
1981-08-25 07:14:32.890 ,2,1,0.,24.0,0.,24.0,0.,24.0,0.,24.0
1981-08-25 07:14:56.890 ,2,0,0.,24.0,0.,24.0,0.,24.0,0.,24.0
1981-08-25 07:15:20.890 ,1,1,0.,24.0,0.,24.0,0.,24.0,0.,24.0
1981-08-25 07:15:44.890 ,1,0,0.,24.0,0.,24.0,0.,24.0,0.,24.0
1981-08-25 07:16:08.890 ,0,1,0.,24.0,0.,24.0,0.,24.0,0.,24.0
1981-08-25 07:16:32.890 ,0,0,0.,24.0,0.,24.0,0.,24.0,0.,24.0
1981-08-25 07:16:56.890 ,0,1,0.,24.0,0.,24.0,0.,24.0,0.,24.0
1981-08-25 07:17:20.890 ,0,0,0.,24.0,0.,24.0,0.,24.0,0.,24.0
1981-08-25 07:17:44.890 ,1,1,0.,24.0,0.,24.0,0.,24.0,0.,24.0
1981-08-25 07:18:08.890 ,1,0,0.,24.0,0.,24.0,0.,24.0,0.,24.0
1981-08-25 07:18:32.890 ,2,1,0.,24.0,0.,24.0,0.,24.0,0.,24.0
1981-08-25 07:18:56.890 ,2,0,0.,24.0,0.,24.0,0.,24.0,0.,24.0
1981-08-25 07:19:20.890 ,3,1,0.,24.0,0.,24.0,0.,24.0,0.,24.0
1981-08-25 07:19:44.890 ,3,0,0.,24.0,0.,24.0,0.,24.0,0.,24.0
1981-08-25 07:20:08.880 ,4,1,0.,24.0,0.,24.0,0.,24.0,0.,24.0
1981-08-25 07:20:32.880 ,4,0,0.,24.0,0.,24.0,0.,24.0,0.,24.0
1981-08-25 07:20:56.880 ,5,1,0.,24.0,0.,24.0,0.,24.0,0.,24.0
1981-08-25 07:21:20.880 ,5,0,0.,24.0,0.,24.0,0.,24.0,0.,24.0
1981-08-25 07:21:44.880 ,6,1,0.,24.0,0.,24.0,0.,24.0,0.,24.0
1981-08-25 07:22:08.880 ,6,0,0.,24.0,0.,24.0,0.,24.0,0.,24.0
1981-08-25 07:22:32.880 ,7,1,0.,24.0,0.,24.0,0.,24.0,0.,24.0
1981-08-25 07:22:56.880 ,7,0,0.,24.0,0.,24.0,0.,24.0,0.,24.0
1981-08-25 07:23:20.880 ,7,1,0.,24.0,0.,24.0,0.,24.0,0.,24.0
1981-08-25 07:23:44.880 ,7,0,0.,24.0,0.,24.0,0.,24.0,0.,24.0
1981-08-25 07:24:08.880 ,6,1,0.,24.0,0.,24.0,0.,24.0,0.,24.0
1981-08-25 07:24:32.880 ,6,0,0.,24.0,0.,24.0,0.,24.0,0.,24.0
1981-08-25 07:24:56.880 ,5,1,0.,24.0,0.,24.0,0.,24.0,0.,24.0
1981-08-25 07:25:20.880 ,5,0,0.,24.0,0.,24.0,0.,24.0,0.,24.0
1981-08-25 07:26:32.880 ,0,0,0.,24.0,0.,24.0,0.,24.0,0.,24.0
1981-08-25 07:26:56.880 ,0,0,0.,24.0,0.,24.0,0.,24.0,0.,24.0
1981-08-25 07:27:20.880 ,2,1,0.,24.0,0.,24.0,0.,24.0,0.,24.0
1981-08-25 07:27:44.880 ,2,0,0.,24.0,0.,24.0,0.,24.0,0.,24.0
1981-08-25 07:28:08.880 ,1,1,0.,24.0,0.,24.0,0.,24.0,0.,24.0
1981-08-25 07:28:32.880 ,1,0,0.,24.0,0.,24.0,0.,24.0,0.,24.0
1981-08-25 07:28:56.880 ,0,1,0.,24.0,0.,24.0,0.,24.0,0.,24.0
1981-08-25 07:29:20.880 ,0,0,0.,24.0,0.,24.0,0.,24.0,0.,24.0
1981-08-25 07:29:44.880 ,0,1,0.,24.0,0.,24.0,0.,24.0,0.,24.0
1981-08-25 07:30:08.880 ,0,0,0.,24.0,0.,24.0,0.,24.0,0.,24.0
1981-08-25 07:30:32.880 ,1,1,0.,24.0,0.,24.0,0.,24.0,0.,24.0
1981-08-25 07:30:56.880 ,1,0,0.,24.0,0.,24.0,0.,24.0,0.,24.0
1981-08-25 07:31:20.880 ,2,1,0.,24.0,0.,24.0,0.,24.0,0.,24.0
1981-08-25 07:31:44.880 ,2,0,0.,24.0,0.,24.0,0.,24.0,0.,24.0
1981-08-25 07:32:08.880 ,3,1,0.,24.0,0.,24.0,0.,24.0,0.,24.0
1981-08-25 07:32:32.880 ,3,0,0.,24.0,0.,24.0,0.,24.0,0.,24.0
1981-08-25 07:32:56.880 ,4,1,0.,24.0,0.,24.0,0.,24.0,0.,24.0
1981-08-25 07:33:20.880 ,4,0,0.,24.0,0.,24.0,0.,24.0,0.,24.0
1981-08-25 07:33:44.880 ,5,1,0.,24.0,0.,24.0,0.,24.0,0.,24.0
1981-08-25 07:34:08.880 ,5,0,0.,24.0,0.,24.0,0.,24.0,0.,24.0
1981-08-25 07:34:32.880 ,6,1,0.,24.0,0.,24.0,0.,24.0,0.,24.0
1981-08-25 07:34:56.880 ,6,0,0.,24.0,0.,24.0,0.,24.0,0.,24.0
1981-08-25 07:35:20.880 ,7,1,0.,24.0,0.,24.0,0.,24.0,0.,24.0
1981-08-25 07:35:44.880 ,7,0,0.,24.0,0.,24.0,0.,24.0,0.,24.0
1981-08-25 07:36:08.880 ,7,1,0.,24.0,0.,24.0,0.,24.0,0.,24.0
1981-08-25 07:36:32.880 ,7,0,0.,24.0,0.,24.0,0.,24.0,0.,24.0
1981-08-25 07:36:56.880 ,6,1,0.,24.0,0.,24.0,0.,24.0,0.,24.0
1981-08-25 07:37:20.880 ,6,0,0.,24.0,0.,24.0,0.,24.0,0.,24.0
1981-08-25 07:37:44.880 ,5,1,0.,24.0,0.,24.0,0.,24.0,0.,24.0
1981-08-25 07:38:08.880 ,5,0,0.,24.0,0.,24.0,0.,24.0,0.,24.0
1981-08-25 07:38:32.880 ,4,1,0.,24.0,0.,24.0,0.,24.0,0.,24.0
1981-08-25 07:38:56.880 ,4,0,0.,24.0,0.,24.0,0.,24.0,0.,24.0
1981-08-25 07:39:20.880 ,3,1,0.,24.0,0.,24.0,0.,24.0,0.,24.0
1981-08-25 07:39:44.880 ,3,0,0.,24.0,0.,24.0,0.,24.0,0.,24.0
1981-08-25 07:40:08.880 ,2,1,0.,24.0,0.,24.0,0.,24.0,0.,24.0
1981-08-25 07:40:32.880 ,2,0,0.,24.0,0.,24.0,0.,24.0,0.,24.0
1981-08-25 07:40:56.880 ,1,1,0.,24.0,0.,24.0,0.,24.0,0.,24.0
1981-08-25 07:41:20.880 ,1,0,0.,24.0,0.,24.0,0.,24.0,0.,24.0
1981-08-25 07:41:44.880 ,0,1,0.,24.0,0.,24.0,0.,24.0,0.,24.0
1981-08-25 07:42:08.880 ,0,0,0.,24.0,0.,24.0,0.,24.0,0.,24.0
1981-08-25 07:42:32.880 ,0,1,0.,24.0,0.,24.0,0.,24.0,0.,24.0
1981-08-25 07:42:56.880 ,0,0,0.,24.0,0.,24.0,0.,24.0,0.,24.0
1981-08-25 07:43:20.880 ,1,1,0.,24.0,0.,24.0,0.,24.0,0.,24.0
1981-08-25 07:43:44.880 ,1,0,0.,24.0,0.,24.0,0.,24.0,0.,24.0
1981-08-25 07:44:08.880 ,2,1,0.,24.0,0.,24.0,0.,24.0,0.,24.0
1981-08-25 07:44:32.880 ,2,0,0.,24.0,0.,24.0,0.,24.0,0.,24.0
1981-08-25 07:44:56.880 ,3,1,0.,24.0,0.,24.0,0.,24.0,0.,24.0
1981-08-25 07:45:20.880 ,3,0,0.,24.0,0.,24.0,0.,24.0,0.,24.0
1981-08-25 07:45:44.880 ,4,1,0.,24.0,0.,24.0,0.,24.0,0.,24.0
1981-08-25 07:46:08.880 ,4,0,0.,24.0,0.,24.0,0.,24.0,0.,24.0
1981-08-25 07:46:32.880 ,5,1,0.,24.0,0.,24.0,0.,24.0,0.,24.0
1981-08-25 07:46:56.880 ,5,0,0.,24.0,0.,24.0,0.,24.0,0.,24.0
1981-08-25 07:47:20.880 ,6,1,0.,24.0,0.,24.0,0.,24.0,0.,24.0
1981-08-25 07:47:44.880 ,6,0,0.,24.0,0.,24.0,0.,24.0,0.,24.0
1981-08-25 07:48:08.880 ,7,1,0.,24.0,0.,24.0,0.,24.0,0.,24.0
1981-08-25 07:48:32.880 ,7,0,0.,24.0,0.,24.0,0.,24.0,0.,24.0
1981-08-25 07:48:56.880 ,7,1,0.,24.0,0.,24.0,0.,24.0,0.,24.0
1981-08-25 07:49:20.880 ,7,0,0.,24.0,0.,24.0,0.,24.0,0.,24.0
1981-08-25 07:49:44.880 ,6,1,0.,24.0,0.,24.0,0.,24.0,0.,24.0
1981-08-25 07:50:08.880 ,6,0,0.,24.0,0.,24.0,0.,24.0,0.,24.0
1981-08-25 07:50:32.880 ,5,1,0.,24.0,0.,24.0,0.,24.0,0.,24.0
1981-08-25 07:50:56.880 ,5,0,0.,24.0,0.,24.0,0.,24.0,0.,24.0
1981-08-25 07:51:20.880 ,4,1,0.,24.0,0.,24.0,0.,24.0,0.,24.0
1981-08-25 07:51:44.880 ,4,0,0.,24.0,0.,24.0,0.,24.0,0.,24.0
1981-08-25 07:52:08.880 ,3,1,0.,24.0,0.,24.0,0.,24.0,0.,24.0
1981-08-25 07:52:32.880 ,3,0,0.,24.0,0.,24.0,0.,24.0,0.,24.0
1981-08-25 07:52:56.880 ,2,1,0.,24.0,0.,24.0,0.,24.0,0.,24.0
1981-08-25 07:53:20.880 ,2,0,0.,24.0,0.,24.0,0.,24.0,0.,24.0
1981-08-25 07:53:44.880 ,1,1,0.,24.0,0.,24.0,0.,24.0,0.,24.0
1981-08-25 07:54:08.880 ,1,0,0.,24.0,0.,24.0,0.,24.0,0.,24.0
1981-08-25 07:54:32.880 ,0,1,0.,24.0,0.,24.0,0.,24.0,0.,24.0
1981-08-25 07:54:56.880 ,0,0,0.,24.0,0.,24.0,0.,24.0,0.,24.0
1981-08-25 07:55:20.880 ,0,1,0.,24.0,0.,24.0,0.,24.0,0.,24.0
1981-08-25 07:55:44.880 ,0,0,0.,24.0,0.,24.0,0.,24.0,0.,24.0
1981-08-25 07:56:08.880 ,1,1,0.,24.0,0.,24.0,0.,24.0,0.,24.0
1981-08-25 07:56:32.880 ,1,0,0.,24.0,0.,24.0,0.,24.0,0.,24.0
1981-08-25 07:56:56.880 ,2,1,0.,24.0,0.,24.0,0.,24.0,0.,24.0
1981-08-25 07:57:20.880 ,2,0,0.,24.0,0.,24.0,0.,24.0,0.,24.0
1981-08-25 07:57:44.880 ,3,1,0.,24.0,0.,24.0,0.,24.0,0.,24.0
1981-08-25 07:58:08.880 ,3,0,0.,24.0,0.,24.0,0.,24.0,0.,24.0
1981-08-25 07:58:32.880 ,4,1,0.,24.0,0.,24.0,0.,24.0,0.,24.0
1981-08-25 07:58:56.880 ,4,0,0.,24.0,0.,24.0,0.,24.0,0.,24.0
1981-08-25 07:59:20.880 ,5,1,0.,24.0,0.,24.0,0.,24.0,0.,24.0
1981-08-25 07:59:44.880 ,5,0,0.,24.0,0.,24.0,0.,24.0,0.,24.0
1981-08-25 08:00:08.880 ,6,1,0.,24.0,0.,24.0,0.,24.0,0.,24.0
1981-08-25 08:00:32.880 ,6,0,0.,24.0,0.,24.0,0.,24.0,0.,24.0
1981-08-25 08:00:56.880 ,7,1,0.,24.0,0.,24.0,0.,24.0,0.,24.0
1981-08-25 08:01:20.880 ,7,0,0.,24.0,0.,24.0,0.,24.0,0.,24.0
1981-08-25 08:01:44.880 ,7,1,0.,24.0,0.,24.0,0.,24.0,0.,24.0
1981-08-25 08:02:08.880 ,7,0,0.,24.0,0.,24.0,0.,24.0,0.,24.0
1981-08-25 08:02:32.880 ,6,1,0.,24.0,0.,24.0,0.,24.0,0.,24.0
1981-08-25 08:02:56.880 ,6,0,0.,24.0,0.,24.0,0.,24.0,0.,24.0
1981-08-25 08:03:20.880 ,5,1,0.,24.0,0.,24.0,0.,24.0,0.,24.0
1981-08-25 08:03:44.880 ,5,0,0.,24.0,0.,24.0,0.,24.0,0.,24.0
1981-08-25 08:04:08.880 ,4,1,0.,24.0,0.,24.0,0.,24.0,0.,24.0
1981-08-25 08:04:32.880 ,4,0,0.,24.0,0.,24.0,0.,24.0,0.,24.0
1981-08-25 08:04:56.880 ,3,1,0.,24.0,0.,24.0,0.,24.0,0.,24.0
1981-08-25 08:05:20.880 ,3,0,0.,24.0,0.,24.0,0.,24.0,0.,24.0
1981-08-25 08:05:44.880 ,2,1,0.,24.0,0.,24.0,0.,24.0,0.,24.0
1981-08-25 08:06:08.880 ,2,0,0.,24.0,0.,24.0,0.,24.0,0.,24.0
1981-08-25 08:06:32.880 ,1,1,0.,24.0,0.,24.0,0.,24.0,0.,24.0
1981-08-25 08:06:56.880 ,1,0,0.,24.0,0.,24.0,0.,24.0,0.,24.0
1981-08-25 08:07:20.880 ,0,1,0.,24.0,0.,24.0,0.,24.0,0.,24.0
1981-08-25 08:07:44.880 ,0,0,0.,24.0,0.,24.0,0.,24.0,0.,24.0
1981-08-25 08:08:08.880 ,0,1,0.,24.0,0.,24.0,0.,24.0,0.,24.0
1981-08-25 08:08:32.880 ,0,0,0.,24.0,0.,24.0,0.,24.0,0.,24.0
1981-08-25 08:08:56.880 ,1,1,0.,24.0,0.,24.0,0.,24.0,0.,24.0
1981-08-25 08:09:20.880 ,1,0,0.,24.0,0.,24.0,0.,24.0,0.,24.0
1981-08-25 08:09:44.880 ,2,1,0.,24.0,0.,24.0,0.,24.0,0.,24.0
1981-08-25 08:10:08.880 ,2,0,0.,24.0,0.,24.0,0.,24.0,0.,24.0
1981-08-25 08:10:32.880 ,3,1,0.,24.0,0.,24.0,0.,24.0,0.,24.0
1981-08-25 08:10:56.880 ,3,0,0.,24.0,0.,24.0,0.,24.0,0.,24.0
1981-08-25 08:11:20.880 ,4,1,0.,24.0,0.,24.0,0.,24.0,0.,24.0
1981-08-25 08:11:44.880 ,4,0,0.,24.0,0.,24.0,0.,24.0,0.,24.0
1981-08-25 08:12:08.880 ,5,1,0.,24.0,0.,24.0,0.,24.0,0.,24.0
1981-08-25 08:12:32.880 ,5,0,0.,24.0,0.,24.0,0.,24.0,0.,24.0
1981-08-25 08:12:56.880 ,0,0,0.,24.0,0.,24.0,0.,24.0,0.,24.0
1981-08-25 08:13:20.880 ,0,0,,0,,0,,0,,0
1981-08-25 08:13:20.880 ,0,0,0.,24.0,0.,24.0,0.,24.0,0.,24.0
1981-08-25 08:13:44.880 ,7,1,0.,24.0,0.,24.0,0.,24.0,0.,24.0
1981-08-25 08:14:08.880 ,7,0,0.,24.0,0.,24.0,0.,24.0,0.,24.0
1981-08-25 08:14:32.880 ,7,1,0.,24.0,0.,24.0,0.,24.0,0.,24.0
1981-08-25 08:14:56.880 ,7,0,0.,24.0,0.,24.0,0.,24.0,0.,24.0
1981-08-25 08:15:20.880 ,6,1,0.,24.0,0.,24.0,0.,24.0,0.,24.0
1981-08-25 08:15:44.880 ,6,0,0.,24.0,0.,24.0,0.,24.0,0.,24.0
1981-08-25 08:16:08.880 ,5,1,0.,24.0,0.,24.0,0.,24.0,0.,24.0
1981-08-25 08:16:32.880 ,5,0,0.,24.0,0.,24.0,0.,24.0,0.,24.0
1981-08-25 08:16:56.880 ,4,1,0.,24.0,0.,24.0,0.,24.0,0.,24.0
1981-08-25 08:17:20.880 ,4,0,0.,24.0,0.,24.0,0.,24.0,0.,24.0
1981-08-25 08:17:44.880 ,3,1,0.,24.0,0.,24.0,0.,24.0,0.,24.0
1981-08-25 08:18:08.880 ,3,0,0.,24.0,0.,24.0,0.,24.0,0.,24.0
1981-08-25 08:18:32.880 ,2,1,0.,24.0,0.,24.0,0.,24.0,0.,24.0
1981-08-25 08:18:56.880 ,2,0,0.,24.0,0.,24.0,0.,24.0,0.,24.0
1981-08-25 08:19:20.880 ,1,1,0.,24.0,0.,24.0,0.,24.0,0.,24.0
1981-08-25 08:19:44.880 ,1,0,0.,24.0,0.,24.0,0.,24.0,0.,24.0
1981-08-25 08:20:08.880 ,0,1,0.,24.0,0.,24.0,0.,24.0,0.,24.0
1981-08-25 08:20:32.880 ,0,0,0.,24.0,0.,24.0,0.,24.0,0.,24.0
1981-08-25 08:20:56.880 ,0,1,0.,24.0,0.,24.0,0.,24.0,0.,24.0
1981-08-25 08:21:20.880 ,0,0,0.,24.0,0.,24.0,0.,24.0,0.,24.0
1981-08-25 08:21:44.880 ,1,1,0.,24.0,0.,24.0,0.,24.0,0.,24.0
1981-08-25 08:22:08.880 ,1,0,0.,24.0,0.,24.0,0.,24.0,0.,24.0
1981-08-25 08:22:32.880 ,2,1,0.,24.0,0.,24.0,0.,24.0,0.,24.0
1981-08-25 08:22:56.880 ,2,0,0.,24.0,0.,24.0,0.,24.0,0.,24.0
1981-08-25 08:23:20.880 ,3,1,0.,24.0,0.,24.0,0.,24.0,0.,24.0
1981-08-25 08:23:44.880 ,3,0,0.,24.0,0.,24.0,0.,24.0,0.,24.0
1981-08-25 08:24:08.880 ,4,1,0.,24.0,0.,24.0,0.,24.0,0.,24.0
1981-08-25 08:24:32.880 ,4,0,0.,24.0,0.,24.0,0.,24.0,0.,24.0
1981-08-25 08:24:56.880 ,5,1,0.,24.0,0.,24.0,0.,24.0,0.,24.0
1981-08-25 08:25:20.880 ,5,0,0.,24.0,0.,24.0,0.,24.0,0.,24.0
1981-08-25 08:25:44.880 ,6,1,0.,24.0,0.,24.0,0.,24.0,0.,24.0
1981-08-25 08:26:08.880 ,6,0,0.,24.0,0.,24.0,0.,24.0,0.,24.0
1981-08-25 08:26:32.880 ,7,1,0.,24.0,0.,24.0,0.,24.0,0.,24.0
1981-08-25 08:26:56.880 ,7,0,0.,24.0,0.,24.0,0.,24.0,0.,24.0
1981-08-25 08:27:20.880 ,7,1,0.,24.0,0.,24.0,0.,24.0,0.,24.0
1981-08-25 08:27:44.880 ,7,0,0.,24.0,0.,24.0,0.,24.0,0.,24.0
1981-08-25 08:28:08.880 ,6,1,0.,24.0,0.,24.0,0.,24.0,0.,24.0
1981-08-25 08:28:32.880 ,6,0,0.,24.0,0.,24.0,0.,24.0,0.,24.0
1981-08-25 08:28:56.880 ,5,1,0.,24.0,0.,24.0,0.,24.0,0.,24.0
1981-08-25 08:29:20.880 ,5,0,0.,24.0,0.,24.0,0.,24.0,0.,24.0
1981-08-25 08:30:32.880 ,0,0,0.,24.0,0.,24.0,0.,24.0,0.,24.0
1981-08-25 08:30:56.880 ,0,0,0.,24.0,0.,24.0,0.,24.0,0.,24.0
1981-08-25 08:31:20.880 ,2,1,0.,24.0,0.,24.0,0.,24.0,0.,24.0
1981-08-25 08:31:44.880 ,2,0,0.,24.0,0.,24.0,0.,24.0,0.,24.0
1981-08-25 08:32:08.880 ,1,1,0.,24.0,0.,24.0,0.,24.0,0.,24.0
1981-08-25 08:32:32.880 ,1,0,0.,24.0,0.,24.0,0.,24.0,0.,24.0
1981-08-25 08:32:56.880 ,0,1,0.,24.0,0.,24.0,0.,24.0,0.,24.0
1981-08-25 08:33:20.880 ,0,0,0.,24.0,0.,24.0,0.,24.0,0.,24.0
1981-08-25 08:33:44.880 ,0,1,0.,24.0,0.,24.0,0.,24.0,0.,24.0
1981-08-25 08:34:08.880 ,0,0,0.,24.0,0.,24.0,0.,24.0,0.,24.0
1981-08-25 08:34:32.880 ,1,1,0.,24.0,0.,24.0,0.,24.0,0.,24.0
1981-08-25 08:34:56.880 ,1,0,0.,24.0,0.,24.0,0.,24.0,0.,24.0
1981-08-25 08:35:20.880 ,2,1,0.,24.0,0.,24.0,0.,24.0,0.,24.0
1981-08-25 08:35:44.880 ,2,0,0.,24.0,0.,24.0,0.,24.0,0.,24.0
1981-08-25 08:36:08.880 ,3,1,0.,24.0,0.,24.0,0.,24.0,0.,24.0
1981-08-25 08:36:32.880 ,3,0,0.,24.0,0.,24.0,0.,24.0,0.,24.0
1981-08-25 08:36:56.880 ,4,1,0.,24.0,0.,24.0,0.,24.0,0.,24.0
1981-08-25 08:37:20.880 ,4,0,0.,24.0,0.,24.0,0.,24.0,0.,24.0
1981-08-25 08:37:44.880 ,5,1,0.,24.0,0.,24.0,0.,24.0,0.,24.0
1981-08-25 08:38:08.880 ,5,0,0.,24.0,0.,24.0,0.,24.0,0.,24.0
1981-08-25 08:38:32.880 ,6,1,0.,24.0,0.,24.0,0.,24.0,0.,24.0